Location: Artiguedieu
(43.5000°N, 0.5454°E)
Time: 10:27:42
(UTC+00:00)

Vanguard 1 Rocket - Pass Details

Date: 04 August 2021
Orbit: 650 x 4226 km, 34.3° (Epoch: 24 September)

Event Time Altitude Azimuth Distance (km) Brightness Sun altitude
Rises 07:54:11 0° 221° (SW) 8,463 12.0 31.6°
Reaches altitude 10° 08:00:49 10° 215° (SW) 7,364 11.8 32.8°
Maximum altitude 08:22:15 41° 156° (SSE) 4,167 11.6 36.6°
Drops below altitude 10° 08:35:44 10° 92° (E) 4,800 12.3 39.0°
Sets 08:38:56 0° 85° (E) 5,404 12.2 39.5°
